This is the latest recevied weather packets stored in our database for station/object WW6Q. If no packets are shown the sender has not sent any weather packets the latest 10 day(s).
| Time | Temp. | Humidity | Pressure | Rain* | Wind** | Luminosity | Snow |
|---|---|---|---|---|---|---|---|
| 1787850512 | 26.11° C | 59% | 1015.1 hPa | 0 mm | - | 687 W/m² | - |
| 1787850207 | 25.56° C | 58% | 1015.1 hPa | 0 mm | - | 294 W/m² | - |
| 1787849901 | 25° C | 63% | 1015.3 hPa | 0 mm | - | 821 W/m² | - |
| 1787849601 | 25° C | 63% | 1015.3 hPa | 0 mm | - | 801 W/m² | - |
| 1787849300 | 25° C | 64% | 1015.3 hPa | 0 mm | - | 353 W/m² | - |
| 1787848995 | 25° C | 67% | 1015.3 hPa | 0 mm | - | 337 W/m² | - |
| 1787848690 | 25.56° C | 63% | 1015.1 hPa | 0 mm | - | 232 W/m² | - |
| 1787848385 | 25° C | 63% | 1015.3 hPa | 0 mm | - | 862 W/m² | - |
| 1787848085 | 24.44° C | 62% | 1015.3 hPa | 0 mm | - | 203 W/m² | - |
| 1787847784 | 24.44° C | 64% | 1015.3 hPa | 0 mm | - | 845 W/m² | - |
| 1787847480 | 25° C | 64% | 1015.4 hPa | 0 mm | - | 180 W/m² | - |
| 1787847176 | 25° C | 65% | 1015.3 hPa | 0 mm | - | 742 W/m² | - |
| 1787846872 | 25° C | 68% | 1015.3 hPa | 0 mm | - | 803 W/m² | - |
| 1787846572 | 25° C | 67% | 1015.2 hPa | 0 mm | - | 257 W/m² | - |
| 1787846267 | 25° C | 66% | 1014.8 hPa | 0 mm | - | 760 W/m² | - |
| 1787845963 | 25° C | 67% | 1015.2 hPa | 0 mm | - | 698 W/m² | - |
| 1787845659 | 24.44° C | 66% | 1015.2 hPa | 0 mm | - | 700 W/m² | - |
| 1787845358 | 24.44° C | 71% | 1015 hPa | 0 mm | - | 124 W/m² | - |
| 1787845054 | 24.44° C | 71% | 1015.1 hPa | 0 mm | - | 667 W/m² | - |
| 1787844749 | 23.89° C | 70% | 1015 hPa | 0 mm | - | 635 W/m² | - |
| 1787844448 | 23.89° C | 71% | 1015.1 hPa | 0 mm | - | 630 W/m² | - |
| 1787844144 | 23.89° C | 70% | 1015 hPa | 0 mm | - | 470 W/m² | - |
| 1787843844 | 23.89° C | 69% | 1015.1 hPa | 0 mm | - | 615 W/m² | - |
| 1787843538 | 23.89° C | 70% | 1014.8 hPa | 0 mm | - | 570 W/m² | - |
| 1787843235 | 23.89° C | 71% | 1014.9 hPa | 0 mm | - | 518 W/m² | - |
* Rain latest hour (hover to see other rain measurements)
** Current wind speed in m/s (hover to see current wind gust speed)